Location: Unspecified
(0.0000°N, 0.0000°E)
Time: 00:09:29
(UTC+00:00)

CSTB 1 - Pass Details

Date: 24 May 2026
Orbit: 607 x 696 km, 98.4° (Epoch: 10 June)

Event Time Altitude Azimuth Distance (km) Brightness Sun altitude
Rises 05:03:42 0° 26° (NNE) 3,058 ? -12.4°
Reaches altitude 10° 05:06:04 10° 34° (NNE) 2,145 ? -11.9°
Maximum altitude 05:10:26 39° 102° (ESE) 1,035 ? -10.8°
Drops below altitude 10° 05:14:48 10° 171° (S) 2,136 ? -9.8°
Sets 05:17:09 0° 178° (S) 3,045 ? -9.3°
